Location: Newark
(41.9000°N, 12.4833°E)
Time: 15:30:41
(UTC+00:00)

EO-79 - Pass Details

Date: 27 May 2019
Orbit: 591 x 611 km, 97.9° (Epoch: 19 June)

Event Time Altitude Azimuth Distance (km) Brightness Sun altitude
Rises 00:09:30 0° 5° (N) 2,839 ? -25.3°
Reaches altitude 10° 00:11:45 10° 359° (N) 1,932 ? -25.1°
Enters shadow 00:15:23 42° 302° (WNW) 845 ? -24.9°
